sat.trackr.live / text

‹ back to catalog

STARLINK-36364

NORAD 67978 · 2026-038T

PAYLOAD ACTIVE UNKNOWN

§ Identity

Operator
Country
US
Launch date
2026-02-25
Launch site
AFWTR
Launch vehicle
Mass (kg)
RCS (m²)

Purposes: comms

External: N2YO · Heavens-Above · Gunter

§ Orbital elements

Epoch: 2026-09-19T18:15:35.517600Z

Period
93.91 min
Inclination
97.2849°
Eccentricity
0.0000180
Mean motion
15.33458832 rev/d
Perigee alt
465.4 km
Apogee alt
465.6 km
Semi-major
6,843.6 km
B*
5.9312e-4
RAAN
271.1657°
Arg perigee
136.6780°
Mean anomaly
223.4477°
Rev number
3,298

§ Raw data

STARLINK-363641 67978U 26038T   26262.76082775  .00019130  00000+0  59312-3 0  99922 67978  97.2849 271.1657 0000180 136.6780 223.4477 15.33458832 32980

JSON: /api/v1/satellites/67978 · /tle

For live sub-satellite position, see the globe view (requires WebGL).

§ Visibility from observer

Set your observer location to see the next 7 days of passes ≥ 10°. The values pass through the URL so the page stays shareable.

No JS? Fill the form by hand. The geolocation button needs JavaScript.